Vorticity
nan nan nan nan nan nan nan nan nan nan nan nan nan nan nan nan nan nan nan nan nan nan nan nan nan nan nan nan nan nan nan nan nan nan nan nan nan nan nan nan nan nan nan nan nan nan nan nan nan nan nan nan nan nan nan nan nan nan nan nan nan nan nan nan nan nan nan nan nan
nan 8 8 10 11 11 10 8 8 10 11 11 11 12 12 11 10 10 9 9 10 11 11 13 17 19 18 12 7 8 11 13 12 9 8 8 8 8 8 8 10 10 10 9 5 3 7 6 1 3 7 10 11 10 9 10 12 12 12 6 4 9 12 12 13 14 12 8 nan
nan 8 8 10 11 11 10 9 10 11 10 9 10 11 11 10 11 10 9 10 10 10 10 14 18 18 13 6 6 10 12 12 11 8 8 9 9 8 7 9 11 9 8 8 6 5 8 6 2 3 6 11 11 9 9 11 10 11 13 6 2 7 10 13 15 13 11 13 nan
nan 9 10 11 12 10 9 12 13 10 6 6 10 10 9 9 11 11 12 10 7 6 9 14 15 13 9 6 9 11 13 13 11 8 8 10 11 9 8 9 10 9 8 8 8 7 8 3 0 5 10 12 9 6 7 12 11 8 10 8 6 8 9 11 12 11 11 14 nan
nan 11 12 13 11 8 9 13 13 9 5 6 9 10 9 8 10 12 11 9 7 10 14 14 11 11 11 11 11 11 12 11 7 7 9 11 10 9 9 9 8 8 9 10 10 9 8 1 -2 6 11 9 7 9 11 12 9 6 6 8 9 9 9 9 10 10 10 12 nan
nan 11 12 13 11 9 10 14 12 8 7 9 11 11 9 9 11 12 11 10 11 13 13 10 9 10 12 11 8 8 10 8 6 8 11 10 9 10 9 8 7 7 9 11 11 9 6 -1 -2 7 10 10 10 12 13 9 6 6 5 6 8 9 10 8 8 10 11 11 nan
nan 11 11 12 11 11 13 13 10 9 9 11 14 12 11 11 13 13 10 9 9 9 7 7 10 11 11 9 6 8 9 9 10 10 8 8 10 10 8 8 8 7 9 10 10 7 6 -0 -0 7 9 9 12 15 12 7 6 6 6 5 6 9 11 9 7 10 14 13 nan
nan 11 11 11 11 12 13 11 9 9 9 12 16 15 12 11 12 10 7 6 7 8 7 11 15 11 9 8 8 9 11 10 9 9 8 9 11 9 7 7 8 8 8 9 8 7 4 0 3 7 8 8 11 16 15 10 6 6 6 4 4 7 9 9 9 11 14 14 nan
nan 11 11 11 11 12 11 11 10 11 12 15 16 15 12 11 9 6 4 5 8 10 9 14 15 11 8 8 9 9 10 10 9 8 8 10 10 8 6 7 8 7 8 9 10 8 1 -1 4 8 8 8 11 15 17 13 7 6 4 4 6 7 8 9 9 10 12 13 nan
nan 12 10 10 11 10 10 10 10 12 13 14 14 13 11 11 9 6 4 8 11 11 11 14 13 9 8 8 8 8 9 9 10 10 9 9 10 8 5 7 9 7 7 9 11 10 2 1 6 8 8 9 12 13 14 12 9 6 0 4 11 11 8 8 9 9 9 11 nan
nan 17 12 10 9 8 8 8 8 10 11 13 12 11 11 10 10 8 8 11 13 12 11 11 11 9 8 8 9 9 8 8 10 11 10 10 9 8 5 7 9 8 7 8 8 8 5 6 10 10 8 9 12 12 13 11 10 7 2 4 12 12 10 8 8 8 10 12 nan
nan 25 21 15 10 8 8 7 8 10 12 12 10 9 9 10 11 10 10 12 11 10 9 11 11 9 7 9 11 10 10 10 10 10 11 10 9 8 6 7 9 9 8 6 4 5 7 10 11 12 9 6 7 12 15 13 9 8 6 6 9 10 10 9 6 6 10 13 nan
nan 25 28 23 15 11 9 9 10 11 12 11 8 7 8 9 10 9 9 9 8 8 10 12 11 10 9 10 11 10 10 12 10 9 10 11 10 9 7 8 9 9 7 6 5 6 8 11 12 11 9 5 5 12 16 13 9 9 8 8 8 9 9 8 6 6 9 10 nan
nan 17 23 27 24 18 13 11 11 12 13 11 8 8 8 8 8 7 8 8 8 9 10 11 11 12 14 12 10 11 10 11 11 9 9 9 10 10 7 9 10 8 6 7 8 8 7 9 11 10 10 7 7 11 13 11 9 9 9 8 8 8 8 8 7 7 8 8 nan
nan 11 14 21 26 25 19 14 12 13 12 10 8 8 8 8 8 8 9 9 8 8 9 10 12 16 17 13 10 10 9 10 10 9 9 9 9 9 7 9 10 7 6 7 9 9 9 8 9 9 9 8 8 10 11 10 9 9 9 8 8 8 9 8 7 6 8 8 nan
nan 9 11 14 19 24 25 19 15 13 12 10 9 9 9 9 10 11 11 8 6 8 10 10 12 16 17 15 10 9 8 9 10 9 9 9 10 9 8 9 9 8 7 7 8 8 9 8 9 10 9 8 8 10 11 10 9 9 9 9 8 9 9 9 8 7 8 8 nan
nan 9 10 10 12 16 22 25 23 18 14 12 11 9 9 10 11 11 10 8 7 9 10 8 10 14 16 14 10 9 9 9 9 9 9 10 11 9 9 9 9 9 8 7 7 8 8 7 8 10 10 8 8 10 11 9 8 10 9 9 9 9 10 10 9 9 9 9 nan
nan 9 9 9 9 11 15 22 26 24 20 15 12 11 11 11 11 10 10 9 10 10 9 6 9 14 16 13 9 8 10 11 10 9 10 11 11 10 9 9 9 9 8 8 8 8 8 7 8 8 9 8 8 9 10 8 7 9 9 9 9 10 10 9 8 8 10 10 nan
nan 9 8 8 9 10 11 14 20 23 23 20 16 14 14 13 11 10 10 10 10 10 7 6 9 13 16 13 8 8 10 13 12 10 10 10 10 10 9 9 9 9 8 8 8 9 9 8 8 7 7 8 8 8 9 8 7 9 9 9 9 10 10 9 8 7 9 10 nan
nan 9 9 8 9 10 10 11 13 16 20 22 21 20 16 13 11 11 11 10 10 9 7 6 9 13 16 13 9 8 8 12 14 11 10 10 10 10 10 9 9 9 8 8 9 9 9 9 9 8 8 8 8 8 8 8 8 8 7 8 10 10 10 9 9 8 8 9 nan
nan 8 9 8 9 10 11 11 11 12 13 16 20 22 21 16 12 11 11 11 10 9 7 7 9 12 14 13 9 7 5 10 14 12 10 11 11 10 9 9 9 8 8 9 9 10 9 9 9 8 9 9 8 8 7 8 9 8 6 6 10 11 10 9 9 9 9 9 nan
nan 9 9 8 8 9 10 11 12 11 11 11 14 18 23 21 16 12 11 10 9 9 8 9 10 12 12 11 9 7 5 9 13 11 10 11 12 10 9 9 10 9 9 9 9 11 11 10 10 9 9 9 10 9 8 7 9 9 8 8 9 10 10 9 9 9 9 9 nan
nan 10 11 8 6 8 10 11 10 10 10 10 11 14 18 22 22 16 12 9 8 8 7 8 11 13 13 11 9 8 7 9 12 11 11 11 12 11 9 9 11 9 8 8 10 12 11 12 11 10 9 10 12 10 9 8 8 10 11 10 9 10 10 10 9 9 10 9 nan
nan 11 13 8 4 8 9 9 9 9 9 10 11 11 13 18 23 22 17 11 9 8 5 6 10 13 14 12 10 9 8 9 10 10 10 10 11 11 9 8 10 9 7 7 11 13 11 11 12 12 11 11 12 11 10 9 9 10 12 11 9 10 10 10 10 9 10 9 nan
nan 9 10 9 8 9 9 8 9 9 9 9 10 11 11 14 19 22 22 16 12 9 7 6 9 12 13 13 12 9 9 9 9 9 9 9 9 10 8 8 9 8 8 10 13 13 10 8 9 12 12 11 11 11 10 11 10 10 10 10 10 9 10 11 10 9 9 9 nan
nan 8 8 8 9 9 9 9 9 9 10 9 10 11 11 13 15 18 22 22 17 12 9 8 9 11 13 13 11 9 7 8 10 9 8 9 9 8 6 6 7 8 11 15 16 13 9 6 6 9 10 10 10 10 11 13 13 10 9 9 9 10 10 11 11 10 9 9 nan
nan 10 9 8 7 7 8 9 9 8 9 9 9 10 11 13 13 14 19 25 23 17 12 10 11 12 13 15 13 9 6 7 11 11 9 9 9 7 4 4 6 7 13 20 19 14 9 5 5 6 7 8 9 9 11 14 15 12 10 10 10 10 10 10 11 10 10 10 nan
nan 11 11 10 8 7 7 8 8 8 8 9 9 10 10 10 11 12 15 23 27 24 18 13 11 12 12 15 15 12 9 7 9 11 11 11 10 8 4 4 5 8 14 20 18 13 9 5 4 4 5 5 7 9 11 13 14 12 10 10 11 11 10 10 11 11 12 11 nan
nan 10 10 10 10 8 7 7 7 8 9 9 9 10 10 11 11 11 11 16 23 26 24 17 12 11 10 12 14 14 13 9 9 10 12 12 10 8 6 5 6 9 15 19 17 13 10 7 5 4 2 1 3 7 11 12 12 11 10 10 11 12 11 10 11 12 12 11 nan
nan 11 10 9 10 9 8 7 8 9 10 9 7 9 10 11 10 10 10 11 16 21 23 20 15 12 10 10 11 13 13 12 11 12 13 12 10 8 8 7 6 9 15 18 16 13 11 8 6 5 2 0 1 4 8 10 10 9 9 11 13 13 11 10 10 10 9 10 nan
nan 10 10 9 10 9 9 8 8 9 11 9 7 9 10 10 10 11 10 10 10 13 17 22 22 18 13 10 10 12 12 11 10 11 13 12 10 9 10 9 6 8 15 19 16 14 11 9 7 6 3 0 -1 2 6 9 8 7 8 11 14 13 10 10 11 11 10 9 nan
nan 10 10 10 10 10 9 9 9 9 9 9 9 9 8 9 11 11 11 9 8 9 12 19 25 25 21 14 10 11 11 10 9 8 10 12 11 11 10 10 8 8 15 19 16 14 12 10 8 7 4 0 -1 3 5 7 8 8 10 13 13 11 7 8 12 14 12 8 nan
nan 10 10 10 10 11 10 9 9 9 9 9 9 8 8 9 10 10 11 11 9 8 9 13 19 24 26 21 14 11 10 10 9 8 8 9 11 11 10 10 10 12 17 19 16 14 12 10 9 8 6 0 -1 3 5 5 7 9 12 14 15 13 11 8 11 14 13 9 nan
nan 10 10 10 11 11 11 10 9 9 9 9 9 9 9 9 9 10 11 11 10 10 9 9 11 17 23 25 21 16 11 9 10 9 8 8 9 9 8 6 9 16 21 20 16 13 12 10 10 9 7 0 -2 4 8 7 7 10 13 14 14 14 12 11 12 13 14 10 nan
nan 10 11 11 10 10 10 10 10 10 9 9 9 9 9 9 9 10 10 10 10 11 10 9 9 12 16 23 25 22 17 11 9 9 9 9 9 9 8 4 7 14 21 20 16 14 12 11 10 9 6 -1 -1 5 11 11 10 12 12 13 13 13 12 10 11 13 14 11 nan
nan 10 11 11 10 10 10 11 11 10 10 9 9 9 9 9 10 10 10 10 10 10 10 10 9 9 10 16 23 25 22 17 13 12 11 10 10 10 9 8 8 12 19 20 15 14 12 12 11 9 4 -2 -1 6 11 11 12 14 13 11 12 13 12 10 10 12 12 13 nan
nan 10 11 11 11 10 10 11 11 10 10 9 9 9 9 10 11 10 10 10 9 9 10 10 9 8 7 10 16 20 23 22 18 15 13 12 11 10 10 10 10 12 18 20 16 14 13 13 12 8 1 -3 2 6 9 10 12 14 14 12 12 13 11 10 11 12 12 14 nan
nan 10 11 11 11 11 11 10 10 10 10 10 10 10 10 11 11 10 10 9 8 8 9 9 8 8 7 8 11 15 21 23 21 17 15 12 11 11 11 11 10 11 17 22 19 15 14 14 13 7 -1 -2 4 6 8 10 13 14 13 12 12 12 9 9 12 13 15 16 nan
nan 10 11 11 11 11 11 10 10 10 10 11 10 10 10 11 12 10 10 9 8 8 9 8 8 8 8 9 10 12 17 22 23 19 16 12 10 11 12 11 9 10 16 22 21 17 15 15 14 8 -2 -3 2 5 7 11 14 13 12 10 11 10 9 9 11 13 15 17 nan
nan 10 11 11 11 11 11 11 11 12 11 10 9 10 11 12 12 11 11 10 9 9 10 9 8 9 10 10 10 11 14 20 22 20 17 13 11 11 12 12 9 10 14 20 21 17 15 16 14 8 -4 -4 3 5 8 11 14 13 10 9 8 8 8 9 10 12 14 14 nan
nan nan nan nan nan nan nan nan nan nan nan nan nan nan nan nan nan nan nan nan nan nan nan nan nan nan nan nan nan nan nan nan nan nan nan nan nan nan nan nan nan nan nan nan nan nan nan nan nan nan nan nan nan nan nan nan nan nan nan nan nan nan nan nan nan nan nan nan nan
CAPE
65 41 41 26 20 20 29 35 33 33 54 45 17 21 21 13 13 8 8 4 1 1 1 2 2 2 2 3 3 3 1 nan nan nan nan nan nan nan nan nan nan nan nan nan nan nan nan nan nan nan nan nan nan nan nan nan nan nan nan nan nan nan nan nan nan nan nan nan nan
49 35 35 9 10 10 14 11 8 8 19 22 17 13 13 14 11 9 9 8 4 3 3 3 3 2 2 4 2 2 nan nan nan nan nan nan nan nan nan nan nan nan nan nan nan nan nan nan nan nan nan nan nan nan nan nan nan nan nan nan nan nan nan nan nan nan nan nan nan
15 8 8 8 8 8 7 7 8 8 11 15 14 17 17 13 9 5 5 9 9 6 6 4 3 3 3 3 1 1 nan nan nan nan nan nan nan nan nan nan nan nan nan nan nan nan nan nan nan nan nan nan nan nan nan nan nan nan nan nan nan nan nan nan nan nan nan nan nan
8 7 7 7 5 5 5 6 10 10 10 10 13 12 12 11 11 4 4 8 4 3 3 3 3 3 3 3 2 2 nan nan nan nan nan nan nan nan nan nan nan nan nan nan nan nan nan nan nan nan nan nan nan nan nan nan nan nan nan nan nan nan nan nan nan nan nan nan nan
8 8 8 7 6 6 7 7 9 9 9 12 8 5 5 8 11 7 7 5 4 3 3 3 3 2 2 3 3 3 nan nan nan nan nan nan nan nan nan nan nan nan nan nan nan nan nan nan nan nan nan nan nan nan nan nan nan nan nan nan nan nan nan nan nan nan nan nan nan
8 7 7 9 6 6 6 7 8 8 8 8 6 5 5 6 8 7 7 4 4 4 4 2 2 2 2 3 3 3 nan nan nan nan nan nan nan nan nan nan nan nan nan nan nan nan nan nan nan nan nan nan nan nan nan nan nan nan nan nan nan nan nan nan nan nan nan nan nan
13 11 11 6 6 6 7 8 9 9 9 10 7 8 8 8 7 7 7 3 3 3 3 2 2 2 2 3 3 3 0 nan nan nan nan nan nan nan nan nan nan nan nan nan nan nan nan nan nan nan nan nan nan nan nan nan nan nan nan nan nan nan nan nan nan nan nan nan nan
25 16 16 10 7 7 7 7 7 7 8 10 8 11 11 8 5 5 5 4 3 2 2 3 3 3 3 3 3 3 1 nan nan nan nan nan nan nan nan nan nan nan nan nan nan nan nan nan nan nan nan nan nan nan nan nan nan nan nan nan nan nan nan nan nan nan nan nan nan
23 16 16 15 9 9 8 8 7 7 9 9 9 9 9 7 5 4 4 3 4 2 2 3 4 3 3 3 3 3 1 nan nan nan nan nan nan nan nan nan nan nan nan nan nan nan nan nan nan nan nan nan nan nan nan nan nan nan nan nan nan nan nan nan nan nan nan nan nan
20 15 15 13 12 12 8 7 7 7 8 8 8 8 8 4 4 3 3 3 2 4 4 4 3 3 3 3 2 2 0 nan nan nan nan nan nan nan nan nan nan nan nan nan nan nan nan nan nan nan nan nan nan nan nan nan nan nan nan nan nan nan nan nan nan nan nan nan nan
25 17 17 13 12 12 9 7 6 6 5 4 5 6 6 4 4 4 4 5 2 4 4 4 4 3 3 3 1 1 nan nan nan nan nan nan nan nan nan nan nan nan nan nan nan nan nan nan nan nan nan nan nan nan nan nan nan nan nan nan nan nan nan nan nan nan nan nan nan
9 25 25 18 14 14 10 8 4 4 4 4 4 6 6 7 7 6 6 4 2 3 3 5 5 4 4 3 nan nan nan nan nan nan nan nan nan nan nan nan nan nan nan nan nan nan nan nan nan nan nan nan nan nan nan nan nan nan nan nan nan nan nan nan nan nan nan nan nan
4 10 10 24 17 17 13 10 7 7 5 5 5 7 7 7 6 5 5 2 2 2 2 4 6 3 3 1 nan nan nan nan nan nan nan nan nan nan nan nan nan nan nan nan nan nan nan nan nan nan nan nan nan nan nan nan nan nan nan nan nan nan nan nan nan nan nan nan nan
3 4 4 14 25 25 17 12 10 10 8 8 7 6 6 5 4 2 2 1 1 2 2 4 5 6 6 nan nan nan nan nan nan nan nan nan nan nan nan nan nan nan nan nan nan nan nan nan nan nan nan nan nan nan nan nan nan nan nan nan nan nan nan nan nan nan nan nan nan
2 2 2 4 28 28 30 18 14 14 10 8 8 6 6 4 3 2 2 1 1 3 3 4 7 2 2 nan nan nan nan nan nan nan nan nan nan nan nan nan nan nan nan nan nan nan nan nan nan nan nan nan nan nan nan nan nan nan nan nan nan nan nan nan nan nan nan nan nan
3 2 2 3 4 4 29 26 22 22 14 10 7 6 6 3 2 2 2 2 3 4 4 6 7 2 2 nan nan nan nan nan nan nan nan nan nan nan nan nan nan nan nan nan nan nan nan nan nan nan nan nan nan nan nan nan nan nan nan nan 0 nan nan nan nan nan nan nan nan
3 3 3 3 2 2 5 29 31 31 22 15 10 8 8 6 4 3 3 3 3 4 4 7 8 3 3 nan nan nan nan nan nan nan nan nan nan nan nan nan nan nan nan nan nan nan nan nan nan nan nan nan nan nan nan nan nan nan nan 0 nan nan nan nan nan nan nan nan nan
2 3 3 3 3 3 2 3 6 6 25 22 16 13 13 11 8 6 6 5 4 6 6 7 8 3 3 nan nan nan nan nan nan nan nan nan nan nan nan nan nan nan nan nan nan nan nan nan nan nan nan 0 3 3 3 3 1 1 1 0 nan nan nan nan nan nan nan nan nan
2 3 3 3 3 3 3 2 3 3 6 15 15 12 12 10 9 5 5 4 4 6 6 6 10 3 3 nan nan nan nan nan nan nan nan nan nan nan nan nan nan nan nan nan nan nan nan nan nan nan nan 1 7 6 6 5 3 2 2 1 0 1 1 0 nan nan nan nan nan
2 3 3 3 4 4 3 3 2 2 3 5 11 10 10 9 9 8 8 6 6 7 7 7 10 5 5 0 nan nan nan nan nan nan nan nan nan nan nan nan nan nan nan nan nan nan nan nan nan nan nan 0 1 3 3 3 1 2 2 2 1 1 1 1 nan nan nan nan nan
2 2 2 3 3 3 4 5 4 4 3 3 6 12 12 10 10 10 10 9 7 6 6 8 9 7 7 2 nan nan nan nan nan nan nan nan nan nan nan nan nan nan nan nan nan nan nan nan nan nan nan nan nan 1 1 0 nan 2 2 nan nan 1 1 0 nan nan nan 0 nan
2 3 3 3 3 3 3 4 5 5 3 2 3 5 5 14 13 11 11 9 8 8 8 13 14 11 11 3 nan nan nan nan nan nan nan nan nan nan nan nan nan nan nan nan nan nan nan nan nan nan nan nan 3 1 1 nan nan nan nan nan nan 0 0 nan nan nan nan nan nan
3 3 3 3 4 4 3 3 4 4 1 0 1 2 2 4 13 12 12 9 7 9 9 15 19 10 10 2 0 0 nan nan nan nan nan nan nan nan nan nan nan nan nan nan 3 3 1 0 0 0 0 3 7 0 0 nan nan nan nan nan nan nan nan nan nan nan nan nan nan
4 3 3 2 3 3 3 3 3 3 2 1 1 0 0 0 6 13 13 12 11 8 8 13 18 10 10 0 nan nan nan nan nan nan nan nan nan nan nan nan nan nan nan nan nan nan nan 0 4 4 4 4 1 nan nan nan 2 nan nan nan nan nan nan nan nan nan nan nan nan
3 2 2 3 3 3 3 2 2 2 3 1 1 1 1 0 0 6 6 20 12 8 8 11 14 8 8 nan nan nan nan nan nan nan nan nan nan nan nan nan nan nan nan nan nan nan nan nan nan nan 1 0 nan nan nan 3 0 nan nan nan nan nan nan nan nan nan nan nan nan
nan 1 1 2 3 3 3 3 2 2 3 2 1 1 1 1 0 1 1 7 15 16 16 13 21 5 5 0 nan nan nan nan nan nan nan nan nan nan nan nan nan nan nan nan nan nan nan nan nan nan nan nan nan nan nan 1 nan nan nan nan nan nan nan nan nan nan nan nan nan
nan nan nan 2 2 2 3 3 3 3 2 1 1 0 0 1 1 0 0 3 12 17 17 19 29 0 0 1 nan nan nan nan nan nan nan nan nan nan nan nan nan nan nan nan nan nan nan nan nan nan nan nan nan 1 1 nan nan nan nan nan nan nan nan nan nan nan nan nan nan
nan nan nan 0 2 2 3 3 3 3 3 2 1 2 2 1 1 0 0 1 5 14 14 18 13 3 3 3 0 0 nan nan nan nan nan nan nan nan nan nan nan nan nan nan nan nan nan nan nan nan nan nan nan nan nan nan nan nan nan nan nan nan nan nan nan nan nan nan nan
nan nan nan nan 0 0 3 3 3 3 3 3 3 2 2 0 1 1 1 0 3 28 28 14 2 1 1 1 3 3 1 1 nan nan nan nan nan nan nan nan nan nan nan nan nan nan nan nan nan nan nan nan nan nan nan nan nan nan nan nan nan nan nan nan nan nan nan nan nan
nan nan nan nan nan nan 2 3 3 3 3 4 4 2 2 1 1 2 2 1 3 20 20 37 9 0 0 nan 0 0 5 9 3 nan nan nan nan nan nan nan nan nan nan nan nan nan nan nan nan nan nan nan nan nan nan nan nan nan nan nan nan nan nan nan nan nan nan nan nan
nan nan nan nan nan nan 0 3 4 4 5 4 4 2 2 1 2 5 5 5 4 4 4 28 28 5 5 1 1 1 4 13 12 nan nan nan nan nan nan nan nan nan nan nan nan nan nan nan nan nan nan nan nan nan nan nan nan nan nan nan nan nan nan 0 0 0 nan nan nan
nan nan nan nan nan nan nan 3 4 4 6 4 4 3 3 1 5 8 8 7 4 3 3 8 40 23 23 9 8 8 7 6 8 7 7 3 nan nan nan nan nan nan nan nan nan nan nan nan nan nan nan nan nan nan nan nan nan nan nan nan nan 0 0 nan 0 0 nan nan nan
nan nan nan nan nan nan nan 1 3 3 5 5 3 3 3 3 4 6 6 6 5 4 4 5 16 46 46 26 13 13 9 5 2 5 5 5 2 nan nan nan nan nan nan nan nan nan nan nan nan nan nan nan nan nan nan nan nan nan nan nan nan 0 0 0 0 0 0 nan nan
nan nan nan nan nan nan nan 0 2 2 3 6 5 3 3 3 3 3 3 5 6 6 6 4 5 29 29 58 35 35 10 2 3 9 9 18 9 nan nan nan nan nan nan nan nan nan nan nan nan nan nan nan nan nan nan 0 0 1 1 1 2 1 1 0 nan nan nan nan nan
nan nan nan nan nan nan nan nan 1 1 3 4 5 4 4 3 4 4 4 3 5 6 6 6 6 8 8 45 57 57 28 3 3 7 7 19 26 2 2 nan nan nan nan nan nan nan nan nan nan nan nan nan nan 2 2 3 1 1 1 2 2 0 0 nan nan nan nan nan 0
nan nan nan nan nan nan nan nan 1 1 2 4 4 4 4 4 3 3 3 3 3 6 6 7 6 5 5 11 49 49 30 12 2 0 0 10 25 13 13 3 0 nan nan nan nan nan nan nan nan nan nan nan nan 3 3 3 1 1 1 3 2 2 2 0 0 0 1 0 nan
nan nan nan nan nan nan nan nan 0 0 0 3 3 4 4 3 3 4 4 3 4 4 4 5 5 5 5 4 13 13 47 50 13 1 1 1 5 9 9 13 10 nan nan nan nan nan nan nan nan nan nan nan 0 4 4 3 3 3 3 3 2 2 2 nan nan nan 0 1 0
nan nan nan nan nan nan nan nan nan nan 0 2 4 5 5 3 4 4 4 3 3 3 3 4 4 5 5 5 7 7 27 68 30 8 8 nan 1 7 7 15 29 nan nan nan nan nan nan nan nan nan nan nan 2 4 4 3 3 2 2 2 2 1 1 nan 0 0 0 0 nan
nan nan nan nan nan nan nan nan nan nan 0 3 4 5 5 4 4 4 4 3 3 3 3 3 3 5 5 4 5 5 5 32 37 15 15 0 nan 1 1 16 39 nan nan nan nan nan nan nan nan nan nan nan 3 3 3 2 2 1 1 1 1 0 0 nan 0 0 0 nan nan
nan nan nan nan nan nan nan nan nan nan 1 4 4 4 4 4 4 4 4 3 4 3 3 3 3 4 4 1 3 3 4 10 41 12 12 7 nan nan nan 4 45 nan nan nan nan nan nan nan nan nan nan nan 3 2 2 1 0 0 0 nan nan 0 0 0 0 0 0 nan nan
nan nan nan nan nan nan nan nan nan nan 3 5 3 5 5 4 4 4 4 4 4 4 4 3 4 3 3 1 3 3 4 8 29 30 30 nan nan nan nan 0 27 3 3 nan nan nan nan nan nan nan nan nan 4 1 1 nan nan nan nan nan nan nan nan 0 0 0 1 1 0